Location: Demonte
(44.3148°N, 7.2945°E)
Time: 13:14:12
(UTC+01:00)

ISS - Visible Passes

Search period start: 21 November 2017 00:00
Search period end: 01 December 2017 00:00
Orbit: 402 x 407 km, 51.6° (Epoch: 21 November)

Date Brightness Start Highest point End Pass type
(mag) Time Alt. Az. Time Alt. Az. Time Alt. Az.
26 Nov -1.5 18:23:52 10° SSE 18:25:07 13° SE 18:25:07 13° SE visible
27 Nov -2.1 19:06:06 10° SW 19:07:53 28° SSW 19:07:53 28° SSW visible
28 Nov -2.7 18:14:10 10° SSW 18:17:03 29° SE 18:17:53 25° ESE visible
28 Nov -0.4 19:50:15 10° W 19:50:32 12° W 19:50:32 12° W visible
29 Nov -3.2 18:57:44 10° WSW 19:00:27 56° W 19:00:27 56° W visible
30 Nov -3.8 18:05:23 10° SW 18:08:37 66° SE 18:10:17 26° ENE visible
30 Nov -0.6 19:42:22 10° W 19:42:56 14° WNW 19:42:56 14° WNW visible
